Orange, MA

8:59 AM EDT on April 22, 2018 (GMT -0400)
Orange Municipal

Weather History for KORE - November, 2012

Change the Weather History Date:

Saturday, November 10, 2012

  Actual Average Record
Temperature  
Mean Temperature 42 °F -  
Max Temperature 55 °F 45 °F 69 °F (1999)
Min Temperature 28 °F 27 °F 14 °F (2004)
Degree Days  
Heating Degree Days 24    
Moisture  
Dew Point 29 °F    
Average Humidity 67    
Maximum Humidity 96    
Minimum Humidity 31    
Precipitation  
Precipitation 0.00 in - - ()
Sea Level Pressure  
Sea Level Pressure 30.30 in    
Wind  
Wind Speed 2 mph (NW)    
Max Wind Speed 13 mph    
Max Gust Speed 17 mph    
Visibility 10 miles    
Events      
Averages and records for this station are not official NWS values.
T = Trace of Precipitation, MM = Missing Value Source: NWS Daily Summary

Daily Weather History Graph

Daily Weather History Graph

Search for Another Location

Airport or City:

Astronomy

Nov. 10, 2012 Rise Set
Actual Time 6:34 AM EST 4:30 PM EST
Civil Twilight 6:04 AM EST 5:00 PM EST
Nautical Twilight 5:30 AM EST 5:34 PM EST
Astronomical Twilight 4:57 AM EST 6:07 PM EST
Moon 2:32 AM EST (11/10) 2:19 PM EST (11/10)
Length of Visible Light 10h 56m
Length of Day
9h 56m
Waning Crescent, 14% of the Moon is Illuminated
Nov 10
Waning Crescent
Nov 13
New
Nov 20
First Quarter
Nov 28
Full
Dec 6
Last Quarter

Hourly Weather History & Observations

Time (EST) Temp. Windchill Dew Point Humidity Pressure Visibility Wind Dir Wind Speed Gust Speed Precip Events Conditions
12:52 AM 44.1 °F 42.5 °F 33.1 °F 65% 30.12 in 10.0 mi West 3.5 mph - N/A   Overcast
1:52 AM 43.0 °F 41.3 °F 33.1 °F 68% 30.14 in 10.0 mi West 3.5 mph - N/A   Overcast
2:52 AM 43.0 °F - 32.0 °F 65% 30.15 in 10.0 mi Calm Calm - N/A   Overcast
3:52 AM 37.0 °F - 30.9 °F 79% 30.16 in 10.0 mi Calm Calm - N/A   Clear
4:52 AM 32.0 °F - 30.0 °F 92% 30.18 in 10.0 mi Calm Calm - N/A   Clear
5:52 AM 30.0 °F - 28.0 °F 92% 30.21 in 10.0 mi Calm Calm - N/A   Clear
6:52 AM 28.9 °F - 28.0 °F 96% 30.24 in 8.0 mi Calm Calm - N/A   Clear
7:52 AM 34.0 °F - 30.9 °F 89% 30.27 in 10.0 mi Calm Calm - N/A   Clear
8:52 AM 41.0 °F - 32.0 °F 70% 30.28 in 10.0 mi Calm Calm - N/A   Clear
9:52 AM 48.0 °F - 32.0 °F 54% 30.29 in 10.0 mi NNW 11.5 mph 17.3 mph N/A   Clear
10:52 AM 50.0 °F - 30.9 °F 48% 30.29 in 10.0 mi NNW 8.1 mph - N/A   Clear
11:52 AM 51.1 °F - 30.0 °F 44% 30.28 in 10.0 mi NNE 12.7 mph - N/A   Clear
12:52 PM 53.1 °F - 27.0 °F 37% 30.29 in 10.0 mi North 6.9 mph - N/A   Clear
1:52 PM 55.0 °F - 27.0 °F 34% 30.29 in 10.0 mi Calm Calm - N/A   Clear
2:52 PM 54.0 °F - 24.1 °F 31% 30.30 in 10.0 mi NW 6.9 mph - N/A   Clear
3:52 PM 53.1 °F - 23.0 °F 31% 30.31 in 10.0 mi Calm Calm - N/A   Clear
4:52 PM 43.0 °F - 28.9 °F 58% 30.35 in 10.0 mi Calm Calm - N/A   Clear
5:52 PM 37.0 °F - 30.0 °F 76% 30.38 in 10.0 mi Calm Calm - N/A   Clear
6:52 PM 36.0 °F - 28.9 °F 76% 30.41 in 10.0 mi Calm Calm - N/A   Clear
7:52 PM 34.0 °F - 28.0 °F 79% 30.43 in 10.0 mi Calm Calm - N/A   Clear
8:52 PM 33.1 °F - 28.9 °F 85% 30.44 in 10.0 mi Calm Calm - N/A   Clear
9:52 PM 33.1 °F - 28.9 °F 85% 30.44 in 10.0 mi Calm Calm - N/A   Clear
10:52 PM 33.1 °F - 28.9 °F 85% 30.45 in 10.0 mi Calm Calm - N/A   Mostly Cloudy
11:52 PM 36.0 °F - 30.0 °F 79% 30.45 in 10.0 mi Calm Calm - N/A   Overcast